User: anonymous   Login
Location: D.A.R.C. Observatory
(36.7133°N, 120.8553°W)
Time: 16:26:01
(UTC-08:00)
Language:

USA 215 - Orbit

View from above orbital plane
View from above orbital plane
View from above satellite
View from above satellite

Ground track
Ground track

The orbit data is extracted from the following two-line orbital elements,

1 37162U 10046A   14329.00679851 0.00000000  00000-0  00000-0 0    08
2 37162 122.9945 153.1643 0005247  66.5002 293.4998 13.41449480    05
Epoch (UTC): 25 November 2014 00:09:47
Eccentricity: 0.0005247
inclination: 122.9945°
perigee height: 1100 km
apogee height: 1108 km
right ascension of ascending node: 153.1643°
argument of perigee: 66.5002°
revolutions per day: 13.41449480
mean anomaly at epoch: 293.4998°
orbit number at epoch: 0

The dashed part of the orbit path shows where the satellite is in the earth's shadow,  

DLR